Time,TemperatureF,DewpointF,PressureIn,WindDirection,WindDirectionDegrees,WindSpeedMPH,WindSpeedGustMPH,Humidity,HourlyPrecipIn,Conditions,Clouds,dailyrainin,SoftwareType,DateUTC
2013-06-02 00:00:00,58.5,48.7,30.07,North,351,6.0,8.0,70,0.00,RA,RA,0.00,WeatherDisplay:10.37,2013-06-02 05:00:00,
2013-06-02 00:06:00,58.4,48.3,30.07,NW,313,7.0,11.0,69,0.00,RA,RA,0.00,WeatherDisplay:10.37,2013-06-02 05:06:00,
2013-06-02 00:12:00,58.1,47.9,30.07,NW,308,7.0,12.0,69,0.00,CLR,CLR,0.00,WeatherDisplay:10.37,2013-06-02 05:12:00,
2013-06-02 00:18:00,58.1,47.9,30.07,WNW,296,5.0,7.0,69,0.00,CLR,CLR,0.00,WeatherDisplay:10.37,2013-06-02 05:18:00,
2013-06-02 00:24:00,58.1,47.9,30.07,NNW,344,7.0,8.0,69,0.00,CLR,CLR,0.00,WeatherDisplay:10.37,2013-06-02 05:24:00,
2013-06-02 00:30:00,58.0,47.5,30.07,West,260,7.0,11.0,68,0.00,CLR,CLR,0.00,WeatherDisplay:10.37,2013-06-02 05:30:00,
2013-06-02 00:36:00,58.0,47.5,30.07,WNW,301,7.0,10.0,68,0.00,CLR,CLR,0.00,WeatherDisplay:10.37,2013-06-02 05:36:00,
2013-06-02 00:42:00,57.6,47.1,30.07,WNW,286,3.0,7.0,68,0.00,CLR,CLR,0.00,WeatherDisplay:10.37,2013-06-02 05:42:00,
2013-06-02 00:48:00,57.4,47.3,30.07,WNW,289,6.0,7.0,69,0.00,CLR,CLR,0.00,WeatherDisplay:10.37,2013-06-02 05:48:00,
2013-06-02 00:54:00,57.1,47.0,30.07,WNW,283,5.0,8.0,69,0.00,CLR,CLR,0.00,WeatherDisplay:10.37,2013-06-02 05:54:00,
2013-06-02 01:00:00,56.9,47.2,30.07,WNW,292,3.0,5.0,70,0.00,CLR,CLR,0.00,WeatherDisplay:10.37,2013-06-02 06:00:00,
2013-06-02 01:06:00,56.3,47.0,30.07,NW,310,3.0,8.0,71,0.00,CLR,CLR,0.00,WeatherDisplay:10.37,2013-06-02 06:06:00,
2013-06-02 01:12:00,56.3,47.0,30.07,NW,311,7.0,7.0,71,0.00,CLR,CLR,0.00,WeatherDisplay:10.37,2013-06-02 06:12:00,
2013-06-02 01:18:00,55.8,46.9,30.07,NW,322,6.0,8.0,72,0.00,CLR,CLR,0.00,WeatherDisplay:10.37,2013-06-02 06:18:00,
2013-06-02 01:24:00,55.8,47.2,30.07,NW,308,2.0,9.0,73,0.00,CLR,CLR,0.00,WeatherDisplay:10.37,2013-06-02 06:24:00,
2013-06-02 01:30:00,55.6,47.0,30.07,NNW,338,7.0,9.0,73,0.00,CLR,CLR,0.00,WeatherDisplay:10.37,2013-06-02 06:30:00,
2013-06-02 01:36:00,55.4,46.8,30.07,NNW,341,2.0,5.0,73,0.00,CLR,CLR,0.00,WeatherDisplay:10.37,2013-06-02 06:36:00,
2013-06-02 01:42:00,55.1,47.3,30.07,WNW,289,5.0,8.0,75,0.00,CLR,CLR,0.00,WeatherDisplay:10.37,2013-06-02 06:42:00,
2013-06-02 01:48:00,54.9,47.1,30.07,WNW,296,5.0,7.0,75,0.00,CLR,CLR,0.00,WeatherDisplay:10.37,2013-06-02 06:48:00,
2013-06-02 01:54:00,54.9,47.1,30.07,NW,304,5.0,10.0,75,0.00,CLR,CLR,0.00,WeatherDisplay:10.37,2013-06-02 06:54:00,
2013-06-02 02:00:00,54.7,46.9,30.07,WNW,290,5.0,7.0,75,0.00,CLR,CLR,0.00,WeatherDisplay:10.37,2013-06-02 07:00:00,
2013-06-02 02:06:00,54.7,46.9,30.07,West,279,6.0,9.0,75,0.00,CLR,CLR,0.00,WeatherDisplay:10.37,2013-06-02 07:06:00,
2013-06-02 02:12:00,54.5,46.7,30.07,West,267,7.0,8.0,75,0.00,CLR,CLR,0.00,WeatherDisplay:10.37,2013-06-02 07:12:00,
2013-06-02 02:18:00,54.5,46.7,30.08,West,276,3.0,7.0,75,0.00,CLR,CLR,0.00,WeatherDisplay:10.37,2013-06-02 07:18:00,
2013-06-02 02:24:00,54.5,46.7,30.08,West,281,3.0,8.0,75,0.00,CLR,CLR,0.00,WeatherDisplay:10.37,2013-06-02 07:24:00,
2013-06-02 02:30:00,54.5,46.7,30.08,NW,325,5.0,11.0,75,0.00,CLR,CLR,0.00,WeatherDisplay:10.37,2013-06-02 07:30:00,
2013-06-02 02:36:00,54.4,46.6,30.08,NW,313,5.0,7.0,75,0.00,CLR,CLR,0.00,WeatherDisplay:10.37,2013-06-02 07:36:00,
2013-06-02 02:42:00,54.2,46.5,30.08,NW,318,5.0,11.0,75,0.00,CLR,CLR,0.00,WeatherDisplay:10.37,2013-06-02 07:42:00,
2013-06-02 02:48:00,54.2,46.4,30.08,NNW,336,5.0,8.0,75,0.00,CLR,CLR,0.00,WeatherDisplay:10.37,2013-06-02 07:48:00,
2013-06-02 02:54:00,54.2,46.4,30.08,WNW,293,7.0,10.0,75,0.00,CLR,CLR,0.00,WeatherDisplay:10.37,2013-06-02 07:54:00,
2013-06-02 03:00:00,54.0,46.2,30.08,West,277,6.0,8.0,75,0.00,CLR,CLR,0.00,WeatherDisplay:10.37,2013-06-02 08:00:00,
2013-06-02 03:06:00,53.8,46.0,30.08,WNW,300,8.0,10.0,75,0.00,CLR,CLR,0.00,WeatherDisplay:10.37,2013-06-02 08:06:00,
2013-06-02 03:12:00,53.6,45.8,30.08,WNW,299,6.0,8.0,75,0.00,CLR,CLR,0.00,WeatherDisplay:10.37,2013-06-02 08:12:00,
2013-06-02 03:18:00,53.6,45.8,30.08,West,271,9.0,16.0,75,0.00,CLR,CLR,0.00,WeatherDisplay:10.37,2013-06-02 08:18:00,
2013-06-02 03:24:00,53.5,45.8,30.08,WNW,293,5.0,8.0,75,0.00,CLR,CLR,0.00,WeatherDisplay:10.37,2013-06-02 08:24:00,
2013-06-02 03:30:00,53.5,45.7,30.08,NW,319,7.0,7.0,75,0.00,CLR,CLR,0.00,WeatherDisplay:10.37,2013-06-02 08:30:00,
2013-06-02 03:36:00,53.3,45.9,30.08,NW,320,6.0,8.0,76,0.00,CLR,CLR,0.00,WeatherDisplay:10.37,2013-06-02 08:36:00,
2013-06-02 03:42:00,53.1,45.7,30.09,NW,304,7.0,9.0,76,0.00,CLR,CLR,0.00,WeatherDisplay:10.37,2013-06-02 08:42:00,
2013-06-02 03:48:00,52.9,45.6,30.09,NW,324,5.0,12.0,76,0.00,CLR,CLR,0.00,WeatherDisplay:10.37,2013-06-02 08:48:00,
2013-06-02 03:54:00,52.7,45.7,30.08,North,349,5.0,8.0,77,0.00,CLR,CLR,0.00,WeatherDisplay:10.37,2013-06-02 08:54:00,
2013-06-02 04:00:00,52.7,45.4,30.08,NW,315,8.0,12.0,76,0.00,CLR,CLR,0.00,WeatherDisplay:10.37,2013-06-02 09:00:00,
2013-06-02 04:06:00,52.9,45.2,30.07,West,268,7.0,10.0,75,0.00,CLR,CLR,0.00,WeatherDisplay:10.37,2013-06-02 09:06:00,
2013-06-02 04:12:00,52.6,44.9,30.07,SSW,205,8.0,12.0,75,0.00,CLR,CLR,0.00,WeatherDisplay:10.37,2013-06-02 09:12:00,
2013-06-02 04:18:00,52.6,44.9,30.08,WNW,298,9.0,14.0,75,0.00,CLR,CLR,0.00,WeatherDisplay:10.37,2013-06-02 09:18:00,
2013-06-02 04:24:00,52.6,44.9,30.08,North,5,3.0,7.0,75,0.00,CLR,CLR,0.00,WeatherDisplay:10.37,2013-06-02 09:24:00,
2013-06-02 04:30:00,52.4,44.7,30.08,NNE,14,6.0,10.0,75,0.00,CLR,CLR,0.00,WeatherDisplay:10.37,2013-06-02 09:30:00,
2013-06-02 04:36:00,52.2,44.8,30.08,North,358,5.0,7.0,76,0.00,FEW,FEW,0.00,WeatherDisplay:10.37,2013-06-02 09:36:00,
2013-06-02 04:42:00,52.1,44.7,30.08,NW,319,3.0,7.0,76,0.00,FEW,FEW,0.00,WeatherDisplay:10.37,2013-06-02 09:42:00,
2013-06-02 04:48:00,51.7,45.0,30.08,NW,316,6.0,7.0,78,0.00,FEW,FEW,0.00,WeatherDisplay:10.37,2013-06-02 09:48:00,
2013-06-02 04:54:00,51.7,45.0,30.09,NW,312,6.0,8.0,78,0.00,FEW,FEW,0.00,WeatherDisplay:10.37,2013-06-02 09:54:00,
2013-06-02 05:00:00,51.3,45.0,30.09,WNW,302,6.0,11.0,79,0.00,FEW,FEW,0.00,WeatherDisplay:10.37,2013-06-02 10:00:00,
2013-06-02 05:06:00,51.3,45.0,30.10,WNW,302,2.0,6.0,79,0.00,FEW,FEW,0.00,WeatherDisplay:10.37,2013-06-02 10:06:00,
2013-06-02 05:12:00,51.1,45.1,30.10,WNW,286,3.0,5.0,80,0.00,FEW,FEW,0.00,WeatherDisplay:10.37,2013-06-02 10:12:00,
2013-06-02 05:18:00,50.9,44.9,30.10,WNW,297,5.0,8.0,80,0.00,FEW,FEW,0.00,WeatherDisplay:10.37,2013-06-02 10:18:00,
2013-06-02 05:24:00,50.6,44.6,30.10,NW,316,5.0,8.0,80,0.00,FEW,FEW,0.00,WeatherDisplay:10.37,2013-06-02 10:24:00,
2013-06-02 05:30:00,50.6,44.6,30.10,WNW,291,5.0,8.0,80,0.00,FEW,FEW,0.00,WeatherDisplay:10.37,2013-06-02 10:30:00,
2013-06-02 05:36:00,50.6,44.6,30.10,West,279,5.0,7.0,80,0.00,CLR,CLR,0.00,WeatherDisplay:10.37,2013-06-02 10:36:00,
2013-06-02 05:42:00,50.2,44.6,30.11,NNW,346,5.0,7.0,81,0.00,CLR,CLR,0.00,WeatherDisplay:10.37,2013-06-02 10:42:00,
2013-06-02 05:48:00,50.2,44.6,30.11,NW,323,3.0,7.0,81,0.00,CLR,CLR,0.00,WeatherDisplay:10.37,2013-06-02 10:48:00,
2013-06-02 05:54:00,50.2,44.6,30.11,WNW,282,6.0,7.0,81,0.00,CLR,CLR,0.00,WeatherDisplay:10.37,2013-06-02 10:54:00,
2013-06-02 06:00:00,50.0,44.7,30.11,NW,306,6.0,8.0,82,0.00,CLR,CLR,0.00,WeatherDisplay:10.37,2013-06-02 11:00:00,
2013-06-02 06:06:00,50.0,44.7,30.12,WNW,286,7.0,11.0,82,0.00,CLR,CLR,0.00,WeatherDisplay:10.37,2013-06-02 11:06:00,
2013-06-02 06:12:00,50.2,44.6,30.12,WNW,283,6.0,10.0,81,0.00,CLR,CLR,0.00,WeatherDisplay:10.37,2013-06-02 11:12:00,
2013-06-02 06:18:00,50.2,44.6,30.12,WNW,302,6.0,8.0,81,0.00,CLR,CLR,0.00,WeatherDisplay:10.37,2013-06-02 11:18:00,
2013-06-02 06:24:00,50.0,44.4,30.12,WNW,289,6.0,10.0,81,0.00,CLR,CLR,0.00,WeatherDisplay:10.37,2013-06-02 11:24:00,
2013-06-02 06:30:00,50.0,44.4,30.12,West,278,7.0,10.0,81,0.00,CLR,CLR,0.00,WeatherDisplay:10.37,2013-06-02 11:30:00,
2013-06-02 06:36:00,50.2,44.6,30.12,NE,46,7.0,12.0,81,0.00,FEW,FEW,0.00,WeatherDisplay:10.37,2013-06-02 11:36:00,
2013-06-02 06:42:00,50.2,44.6,30.12,NNE,17,7.0,8.0,81,0.00,FEW,FEW,0.00,WeatherDisplay:10.37,2013-06-02 11:42:00,
2013-06-02 06:48:00,50.3,44.7,30.12,NNW,328,6.0,8.0,81,0.00,FEW,FEW,0.00,WeatherDisplay:10.37,2013-06-02 11:48:00,
2013-06-02 06:54:00,50.6,44.9,30.11,North,355,6.0,12.0,81,0.00,FEW,FEW,0.00,WeatherDisplay:10.37,2013-06-02 11:54:00,
2013-06-02 07:00:00,50.8,44.8,30.11,NNE,33,5.0,15.0,80,0.00,FEW,FEW,0.00,WeatherDisplay:10.37,2013-06-02 12:00:00,
2013-06-02 07:06:00,50.9,44.9,30.11,North,4,5.0,7.0,80,0.00,FEW,FEW,0.00,WeatherDisplay:10.37,2013-06-02 12:06:00,
2013-06-02 07:12:00,51.1,44.8,30.11,West,277,5.0,7.0,79,0.00,FEW,FEW,0.00,WeatherDisplay:10.37,2013-06-02 12:12:00,
2013-06-02 07:18:00,51.5,44.8,30.12,NNW,332,7.0,8.0,78,0.00,FEW,FEW,0.00,WeatherDisplay:10.37,2013-06-02 12:18:00,
2013-06-02 07:24:00,51.6,45.0,30.12,NNW,332,8.0,13.0,78,0.00,FEW,FEW,0.00,WeatherDisplay:10.37,2013-06-02 12:24:00,
2013-06-02 07:30:00,51.7,44.7,30.12,NNW,348,9.0,14.0,77,0.00,FEW,FEW,0.00,WeatherDisplay:10.37,2013-06-02 12:30:00,
2013-06-02 07:36:00,52.0,45.0,30.12,WNW,282,7.0,12.0,77,0.00,CLR,CLR,0.00,WeatherDisplay:10.37,2013-06-02 12:36:00,
2013-06-02 07:42:00,52.2,45.2,30.13,WNW,288,6.0,11.0,77,0.00,CLR,CLR,0.00,WeatherDisplay:10.37,2013-06-02 12:42:00,
2013-06-02 07:48:00,52.6,45.6,30.13,West,277,6.0,9.0,77,0.00,CLR,CLR,0.00,WeatherDisplay:10.37,2013-06-02 12:48:00,
2013-06-02 07:54:00,52.7,45.7,30.13,SW,230,8.0,14.0,77,0.00,CLR,CLR,0.00,WeatherDisplay:10.37,2013-06-02 12:54:00,
2013-06-02 08:00:00,52.9,45.5,30.13,WNW,299,7.0,11.0,76,0.00,CLR,CLR,0.00,WeatherDisplay:10.37,2013-06-02 13:00:00,
2013-06-02 08:06:00,53.3,45.6,30.13,WNW,303,7.0,12.0,75,0.00,CLR,CLR,0.00,WeatherDisplay:10.37,2013-06-02 13:06:00,
2013-06-02 08:12:00,53.5,45.0,30.13,WNW,288,5.0,9.0,73,0.00,CLR,CLR,0.00,WeatherDisplay:10.37,2013-06-02 13:12:00,
2013-06-02 08:18:00,54.2,45.7,30.14,West,259,7.0,11.0,73,0.00,CLR,CLR,0.00,WeatherDisplay:10.37,2013-06-02 13:18:00,
2013-06-02 08:24:00,54.4,45.5,30.14,ENE,71,12.0,18.0,72,0.00,CLR,CLR,0.00,WeatherDisplay:10.37,2013-06-02 13:24:00,
2013-06-02 08:30:00,54.6,45.8,30.14,NNW,342,9.0,14.0,72,0.00,CLR,CLR,0.00,WeatherDisplay:10.37,2013-06-02 13:30:00,
2013-06-02 08:36:00,55.3,45.6,30.14,NNW,333,8.0,12.0,70,0.00,FEW,FEW,0.00,WeatherDisplay:10.37,2013-06-02 13:36:00,
2013-06-02 08:42:00,55.3,45.6,30.14,NNE,12,8.0,14.0,70,0.00,FEW,FEW,0.00,WeatherDisplay:10.37,2013-06-02 13:42:00,
2013-06-02 08:48:00,55.8,45.8,30.14,North,10,8.0,12.0,69,0.00,FEW,FEW,0.00,WeatherDisplay:10.37,2013-06-02 13:48:00,
2013-06-02 08:54:00,56.3,45.8,30.14,NNW,333,8.0,12.0,68,0.00,FEW,FEW,0.00,WeatherDisplay:10.37,2013-06-02 13:54:00,
2013-06-02 09:00:00,56.3,45.8,30.14,North,356,12.0,20.0,68,0.00,FEW,FEW,0.00,WeatherDisplay:10.37,2013-06-02 14:00:00,
2013-06-02 09:06:00,56.9,46.4,30.14,NW,304,7.0,9.0,68,0.00,FEW,FEW,0.00,WeatherDisplay:10.37,2013-06-02 14:06:00,
2013-06-02 09:12:00,57.1,45.8,30.14,NW,306,9.0,14.0,66,0.00,FEW,FEW,0.00,WeatherDisplay:10.37,2013-06-02 14:12:00,
2013-06-02 09:18:00,57.7,46.4,30.15,NW,315,6.0,12.0,66,0.00,FEW,FEW,0.00,WeatherDisplay:10.37,2013-06-02 14:18:00,
2013-06-02 09:24:00,58.5,46.7,30.15,West,261,10.0,17.0,65,0.00,FEW,FEW,0.00,WeatherDisplay:10.37,2013-06-02 14:24:00,
2013-06-02 09:30:00,58.3,46.6,30.15,WNW,302,12.0,17.0,65,0.00,FEW,FEW,0.00,WeatherDisplay:10.37,2013-06-02 14:30:00,
2013-06-02 09:36:00,58.9,46.3,30.15,North,354,9.0,13.0,63,0.00,FEW,FEW,0.00,WeatherDisplay:10.37,2013-06-02 14:36:00,
2013-06-02 09:42:00,59.8,47.2,30.15,ENE,59,8.0,17.0,63,0.00,FEW,FEW,0.00,WeatherDisplay:10.37,2013-06-02 14:42:00,
2013-06-02 09:48:00,60.1,47.0,30.15,NNE,14,8.0,13.0,62,0.00,FEW,FEW,0.00,WeatherDisplay:10.37,2013-06-02 14:48:00,
2013-06-02 09:54:00,61.2,47.2,30.15,NE,34,10.0,14.0,60,0.00,FEW,FEW,0.00,WeatherDisplay:10.37,2013-06-02 14:54:00,
2013-06-02 10:00:00,61.4,47.3,30.15,NW,314,8.0,15.0,60,0.00,FEW,FEW,0.00,WeatherDisplay:10.37,2013-06-02 15:00:00,
2013-06-02 10:06:00,61.1,46.6,30.15,WNW,290,9.0,14.0,59,0.00,FEW,FEW,0.00,WeatherDisplay:10.37,2013-06-02 15:06:00,
2013-06-02 10:12:00,60.9,46.9,30.15,West,261,12.0,16.0,60,0.00,FEW,FEW,0.00,WeatherDisplay:10.37,2013-06-02 15:12:00,
2013-06-02 10:18:00,61.1,46.7,30.15,West,266,13.0,17.0,59,0.00,FEW,FEW,0.00,WeatherDisplay:10.37,2013-06-02 15:18:00,
2013-06-02 10:24:00,61.2,46.8,30.15,NW,316,12.0,18.0,59,0.00,FEW,FEW,0.00,WeatherDisplay:10.37,2013-06-02 15:24:00,
2013-06-02 10:30:00,60.7,45.9,30.15,NW,325,10.0,16.0,58,0.00,FEW,FEW,0.00,WeatherDisplay:10.37,2013-06-02 15:30:00,
2013-06-02 10:36:00,62.4,47.4,30.15,North,359,7.0,8.0,58,0.00,FEW,FEW,0.00,WeatherDisplay:10.37,2013-06-02 15:36:00,
2013-06-02 10:42:00,62.3,46.4,30.15,West,259,7.0,13.0,56,0.00,FEW,FEW,0.00,WeatherDisplay:10.37,2013-06-02 15:42:00,
2013-06-02 10:48:00,62.3,46.9,30.15,West,272,7.0,15.0,57,0.00,FEW,FEW,0.00,WeatherDisplay:10.37,2013-06-02 15:48:00,
2013-06-02 10:54:00,63.4,46.9,30.15,WNW,287,8.0,18.0,55,0.00,FEW,FEW,0.00,WeatherDisplay:10.37,2013-06-02 15:54:00,
2013-06-02 11:00:00,63.6,46.1,30.15,WSW,253,8.0,14.0,53,0.00,FEW,FEW,0.00,WeatherDisplay:10.37,2013-06-02 16:00:00,
2013-06-02 11:06:00,63.2,46.3,30.15,WSW,244,7.0,12.0,54,0.00,FEW,FEW,0.00,WeatherDisplay:10.37,2013-06-02 16:06:00,
2013-06-02 11:12:00,63.9,46.9,30.15,NW,304,17.0,18.0,54,0.00,FEW,FEW,0.00,WeatherDisplay:10.37,2013-06-02 16:12:00,
2013-06-02 11:18:00,62.2,45.8,30.15,NNW,328,12.0,20.0,55,0.00,FEW,FEW,0.00,WeatherDisplay:10.37,2013-06-02 16:18:00,
2013-06-02 11:24:00,63.5,46.6,30.15,NW,319,6.0,10.0,54,0.00,FEW,FEW,0.00,WeatherDisplay:10.37,2013-06-02 16:24:00,
2013-06-02 11:30:00,65.0,47.4,30.15,NW,319,6.0,8.0,53,0.00,FEW,FEW,0.00,WeatherDisplay:10.37,2013-06-02 16:30:00,
2013-06-02 11:36:00,64.0,46.5,30.15,North,5,8.0,14.0,53,0.00,FEW,FEW,0.00,WeatherDisplay:10.37,2013-06-02 16:36:00,
2013-06-02 11:42:00,64.9,46.8,30.15,NE,38,7.0,14.0,52,0.00,FEW,FEW,0.00,WeatherDisplay:10.37,2013-06-02 16:42:00,
2013-06-02 11:48:00,65.3,46.1,30.15,NE,41,8.0,12.0,50,0.00,FEW,FEW,0.00,WeatherDisplay:10.37,2013-06-02 16:48:00,
2013-06-02 11:54:00,64.4,45.9,30.15,ESE,107,10.0,12.0,51,0.00,FEW,FEW,0.00,WeatherDisplay:10.37,2013-06-02 16:54:00,
2013-06-02 12:00:00,65.4,45.7,30.15,SW,221,9.0,14.0,49,0.00,FEW,FEW,0.00,WeatherDisplay:10.37,2013-06-02 17:00:00,
2013-06-02 12:06:00,64.9,46.3,30.14,WNW,285,10.0,16.0,51,0.00,FEW,FEW,0.00,WeatherDisplay:10.37,2013-06-02 17:06:00,
2013-06-02 12:12:00,66.5,47.2,30.14,WNW,293,9.0,16.0,50,0.00,FEW,FEW,0.00,WeatherDisplay:10.37,2013-06-02 17:12:00,
2013-06-02 12:18:00,66.9,46.6,30.14,NNW,347,7.0,8.0,48,0.00,FEW,FEW,0.00,WeatherDisplay:10.37,2013-06-02 17:18:00,
2013-06-02 12:24:00,67.0,46.1,30.14,NW,322,10.0,13.0,47,0.00,FEW,FEW,0.00,WeatherDisplay:10.37,2013-06-02 17:24:00,
2013-06-02 12:30:00,67.0,46.1,30.14,NW,322,8.0,12.0,47,0.00,FEW,FEW,0.00,WeatherDisplay:10.37,2013-06-02 17:30:00,
2013-06-02 12:36:00,67.3,46.9,30.14,NNW,330,7.0,13.0,48,0.00,SCT,SCT,0.00,WeatherDisplay:10.37,2013-06-02 17:36:00,
2013-06-02 12:42:00,66.1,44.7,30.14,North,359,8.0,12.0,46,0.00,SCT,SCT,0.00,WeatherDisplay:10.37,2013-06-02 17:42:00,
2013-06-02 12:48:00,67.3,45.2,30.14,NE,34,7.0,10.0,45,0.00,SCT,SCT,0.00,WeatherDisplay:10.37,2013-06-02 17:48:00,
2013-06-02 12:54:00,67.9,46.9,30.14,North,7,8.0,10.0,47,0.00,SCT,SCT,0.00,WeatherDisplay:10.37,2013-06-02 17:54:00,
2013-06-02 13:00:00,68.2,45.4,30.14,WNW,291,12.0,14.0,44,0.00,SCT,SCT,0.00,WeatherDisplay:10.37,2013-06-02 18:00:00,
2013-06-02 13:06:00,67.4,45.3,30.14,West,265,7.0,9.0,45,0.00,SCT,SCT,0.00,WeatherDisplay:10.37,2013-06-02 18:06:00,
2013-06-02 13:12:00,67.1,46.2,30.14,NW,312,9.0,14.0,47,0.00,SCT,SCT,0.00,WeatherDisplay:10.37,2013-06-02 18:12:00,
2013-06-02 13:18:00,67.5,46.0,30.13,NNW,328,8.0,12.0,46,0.00,SCT,SCT,0.00,WeatherDisplay:10.37,2013-06-02 18:18:00,
2013-06-02 13:24:00,68.2,45.4,30.13,WNW,301,9.0,13.0,44,0.00,SCT,SCT,0.00,WeatherDisplay:10.37,2013-06-02 18:24:00,
2013-06-02 13:30:00,68.6,46.4,30.12,WNW,303,7.0,12.0,45,0.00,SCT,SCT,0.00,WeatherDisplay:10.37,2013-06-02 18:30:00,
2013-06-02 13:36:00,69.1,46.8,30.12,North,354,8.0,12.0,45,0.00,SCT,SCT,0.00,WeatherDisplay:10.37,2013-06-02 18:36:00,
2013-06-02 13:42:00,69.4,45.9,30.12,NNE,23,7.0,7.0,43,0.00,SCT,SCT,0.00,WeatherDisplay:10.37,2013-06-02 18:42:00,
2013-06-02 13:48:00,69.9,46.9,30.12,NE,37,6.0,7.0,44,0.00,SCT,SCT,0.00,WeatherDisplay:10.37,2013-06-02 18:48:00,
2013-06-02 13:54:00,68.9,46.6,30.11,ENE,60,8.0,12.0,45,0.00,SCT,SCT,0.00,WeatherDisplay:10.37,2013-06-02 18:54:00,
2013-06-02 14:00:00,70.0,47.0,30.11,ENE,58,7.0,12.0,44,0.00,SCT,SCT,0.00,WeatherDisplay:10.37,2013-06-02 19:00:00,
2013-06-02 14:06:00,69.6,46.7,30.11,NE,34,5.0,9.0,44,0.00,FEW,FEW,0.00,WeatherDisplay:10.37,2013-06-02 19:06:00,
2013-06-02 14:12:00,71.6,47.3,30.11,NNE,18,6.0,10.0,42,0.00,FEW,FEW,0.00,WeatherDisplay:10.37,2013-06-02 19:12:00,
2013-06-02 14:18:00,70.6,46.4,30.10,NE,49,9.0,13.0,42,0.00,FEW,FEW,0.00,WeatherDisplay:10.37,2013-06-02 19:18:00,
2013-06-02 14:24:00,71.4,47.1,30.10,North,352,6.0,10.0,42,0.00,FEW,FEW,0.00,WeatherDisplay:10.37,2013-06-02 19:24:00,
2013-06-02 14:30:00,71.7,46.1,30.10,North,350,9.0,13.0,40,0.00,FEW,FEW,0.00,WeatherDisplay:10.37,2013-06-02 19:30:00,
2013-06-02 14:36:00,71.4,44.4,30.10,NNE,12,6.0,8.0,38,0.00,FEW,FEW,0.00,WeatherDisplay:10.37,2013-06-02 19:36:00,
2013-06-02 14:42:00,71.4,47.8,30.10,NNW,338,5.0,9.0,43,0.00,FEW,FEW,0.00,WeatherDisplay:10.37,2013-06-02 19:42:00,
2013-06-02 14:48:00,70.1,45.9,30.10,NNE,21,5.0,8.0,42,0.00,FEW,FEW,0.00,WeatherDisplay:10.37,2013-06-02 19:48:00,
2013-06-02 14:54:00,70.9,46.0,30.09,North,360,5.0,11.0,41,0.00,FEW,FEW,0.00,WeatherDisplay:10.37,2013-06-02 19:54:00,
2013-06-02 15:00:00,71.9,48.2,30.09,NNW,337,5.0,13.0,43,0.00,FEW,FEW,0.00,WeatherDisplay:10.37,2013-06-02 20:00:00,
2013-06-02 15:06:00,71.7,47.4,30.08,NNE,13,7.0,7.0,42,0.00,FEW,FEW,0.00,WeatherDisplay:10.37,2013-06-02 20:06:00,
2013-06-02 15:12:00,71.1,46.9,30.09,ESE,107,8.0,12.0,42,0.00,FEW,FEW,0.00,WeatherDisplay:10.37,2013-06-02 20:12:00,
2013-06-02 15:18:00,73.8,48.7,30.09,ENE,70,3.0,5.0,41,0.00,FEW,FEW,0.00,WeatherDisplay:10.37,2013-06-02 20:18:00,
2013-06-02 15:24:00,71.6,47.9,30.09,NE,45,7.0,9.0,43,0.00,FEW,FEW,0.00,WeatherDisplay:10.37,2013-06-02 20:24:00,
2013-06-02 15:30:00,70.8,47.2,30.08,ENE,64,8.0,9.0,43,0.00,FEW,FEW,0.00,WeatherDisplay:10.37,2013-06-02 20:30:00,
2013-06-02 15:36:00,72.4,47.4,30.08,NE,40,7.0,12.0,41,0.00,FEW,FEW,0.00,WeatherDisplay:10.37,2013-06-02 20:36:00,
2013-06-02 15:42:00,71.6,46.6,30.08,ENE,63,5.0,12.0,41,0.00,FEW,FEW,0.00,WeatherDisplay:10.37,2013-06-02 20:42:00,
2013-06-02 15:48:00,72.5,46.2,30.08,NNE,32,8.0,13.0,39,0.00,FEW,FEW,0.00,WeatherDisplay:10.37,2013-06-02 20:48:00,
2013-06-02 15:54:00,72.5,46.8,30.07,NNE,17,6.0,10.0,40,0.00,FEW,FEW,0.00,WeatherDisplay:10.37,2013-06-02 20:54:00,
2013-06-02 16:00:00,71.8,47.5,30.07,East,95,7.0,10.0,42,0.00,FEW,FEW,0.00,WeatherDisplay:10.37,2013-06-02 21:00:00,
2013-06-02 16:06:00,72.4,46.7,30.06,East,83,5.0,5.0,40,0.00,FEW,FEW,0.00,WeatherDisplay:10.37,2013-06-02 21:06:00,
2013-06-02 16:12:00,72.4,46.7,30.06,ENE,67,5.0,5.0,40,0.00,FEW,FEW,0.00,WeatherDisplay:10.37,2013-06-02 21:12:00,
2013-06-02 16:18:00,72.4,46.7,30.06,ENE,67,5.0,5.0,40,0.00,FEW,FEW,0.00,WeatherDisplay:10.37,2013-06-02 21:18:00,
2013-06-02 16:24:00,72.4,46.7,30.06,ENE,67,5.0,5.0,40,0.00,FEW,FEW,0.00,WeatherDisplay:10.37,2013-06-02 21:24:00,
2013-06-02 16:30:00,72.4,46.7,30.06,ENE,67,5.0,5.0,40,0.00,FEW,FEW,0.00,WeatherDisplay:10.37,2013-06-02 21:30:00,
2013-06-02 16:36:00,72.4,46.7,30.06,ENE,67,5.0,5.0,40,0.00,FEW,FEW,0.00,WeatherDisplay:10.37,2013-06-02 21:36:00,
2013-06-02 16:42:00,72.4,46.7,30.06,ENE,67,5.0,5.0,40,0.00,FEW,FEW,0.00,WeatherDisplay:10.37,2013-06-02 21:42:00,
2013-06-02 16:48:00,72.4,46.7,30.06,ENE,67,5.0,5.0,40,0.00,FEW,FEW,0.00,WeatherDisplay:10.37,2013-06-02 21:48:00,
2013-06-02 17:00:00,72.4,46.7,30.03,ENE,75,6.0,10.0,40,0.00,FEW,FEW,0.00,WeatherDisplay:10.37,2013-06-02 22:00:00,
2013-06-02 17:06:00,72.0,45.0,30.03,ENE,78,8.0,12.0,38,0.00,FEW,FEW,0.00,WeatherDisplay:10.37,2013-06-02 22:06:00,
2013-06-02 17:12:00,71.6,46.0,30.03,ENE,63,6.0,7.0,40,0.00,FEW,FEW,0.00,WeatherDisplay:10.37,2013-06-02 22:12:00,
2013-06-02 17:18:00,72.0,47.0,30.03,ENE,69,5.0,7.0,41,0.00,FEW,FEW,0.00,WeatherDisplay:10.37,2013-06-02 22:18:00,
2013-06-02 17:24:00,71.6,47.2,30.03,East,83,7.0,9.0,42,0.00,FEW,FEW,0.00,WeatherDisplay:10.37,2013-06-02 22:24:00,
2013-06-02 17:30:00,72.3,47.9,30.03,ENE,67,5.0,6.0,42,0.00,FEW,FEW,0.00,WeatherDisplay:10.37,2013-06-02 22:30:00,
2013-06-02 17:36:00,72.6,48.8,30.03,ESE,106,3.0,6.0,43,0.00,FEW,FEW,0.00,WeatherDisplay:10.37,2013-06-02 22:36:00,
2013-06-02 17:42:00,71.8,48.1,30.02,ENE,72,5.0,9.0,43,0.00,FEW,FEW,0.00,WeatherDisplay:10.37,2013-06-02 22:42:00,
2013-06-02 17:48:00,71.7,46.7,30.02,ENE,65,8.0,10.0,41,0.00,FEW,FEW,0.00,WeatherDisplay:10.37,2013-06-02 22:48:00,
2013-06-02 17:54:00,72.2,46.5,30.03,ENE,57,3.0,7.0,40,0.00,FEW,FEW,0.00,WeatherDisplay:10.37,2013-06-02 22:54:00,
2013-06-02 18:00:00,71.4,47.1,30.03,ENE,59,7.0,12.0,42,0.00,FEW,FEW,0.00,WeatherDisplay:10.37,2013-06-02 23:00:00,
2013-06-02 18:06:00,71.5,47.2,30.01,NE,48,7.0,8.0,42,0.00,FEW,FEW,0.00,WeatherDisplay:10.37,2013-06-02 23:06:00,
2013-06-02 18:12:00,70.9,47.3,30.01,ENE,76,7.0,9.0,43,0.00,FEW,FEW,0.00,WeatherDisplay:10.37,2013-06-02 23:12:00,
2013-06-02 18:18:00,70.7,47.7,30.01,ENE,73,3.0,6.0,44,0.00,FEW,FEW,0.00,WeatherDisplay:10.37,2013-06-02 23:18:00,
2013-06-02 18:24:00,72.3,48.5,30.01,NE,53,3.0,5.0,43,0.00,FEW,FEW,0.00,WeatherDisplay:10.37,2013-06-02 23:24:00,
2013-06-02 18:30:00,71.1,47.4,30.01,ENE,73,5.0,8.0,43,0.00,FEW,FEW,0.00,WeatherDisplay:10.37,2013-06-02 23:30:00,
2013-06-02 18:36:00,72.1,47.1,30.01,NE,46,3.0,6.0,41,0.00,FEW,FEW,0.00,WeatherDisplay:10.37,2013-06-02 23:36:00,
2013-06-02 18:42:00,70.8,47.2,30.01,ENE,59,2.0,6.0,43,0.00,FEW,FEW,0.00,WeatherDisplay:10.37,2013-06-02 23:42:00,
2013-06-02 18:48:00,71.6,46.0,30.01,ENE,76,2.0,5.0,40,0.00,FEW,FEW,0.00,WeatherDisplay:10.37,2013-06-02 23:48:00,
2013-06-02 18:54:00,70.9,46.6,30.01,ENE,67,2.0,4.0,42,0.00,FEW,FEW,0.00,WeatherDisplay:10.37,2013-06-02 23:54:00,
2013-06-02 19:00:00,70.7,47.7,30.01,ENE,66,2.0,5.0,44,0.00,FEW,FEW,0.00,WeatherDisplay:10.37,2013-06-03 00:00:00,
2013-06-02 19:06:00,70.3,47.9,30.01,ENE,72,5.0,7.0,45,0.00,FEW,FEW,0.00,WeatherDisplay:10.37,2013-06-03 00:06:00,
2013-06-02 19:12:00,70.9,47.9,30.01,NE,48,3.0,7.0,44,0.00,FEW,FEW,0.00,WeatherDisplay:10.37,2013-06-03 00:12:00,
2013-06-02 19:18:00,71.2,48.1,30.01,NE,42,2.0,6.0,44,0.00,FEW,FEW,0.00,WeatherDisplay:10.37,2013-06-03 00:18:00,
2013-06-02 19:24:00,71.3,48.3,30.01,NE,37,3.0,4.0,44,0.00,FEW,FEW,0.00,WeatherDisplay:10.37,2013-06-03 00:24:00,
2013-06-02 19:30:00,71.0,47.3,30.02,NE,35,3.0,5.0,43,0.00,FEW,FEW,0.00,WeatherDisplay:10.37,2013-06-03 00:30:00,
2013-06-02 19:36:00,69.6,46.7,30.02,NE,36,5.0,6.0,44,0.00,FEW,FEW,0.00,WeatherDisplay:10.37,2013-06-03 00:36:00,
2013-06-02 19:42:00,70.1,47.1,30.02,ENE,71,0.0,6.0,44,0.00,FEW,FEW,0.00,WeatherDisplay:10.37,2013-06-03 00:42:00,
2013-06-02 19:48:00,70.4,46.9,30.02,NE,56,2.0,6.0,43,0.00,FEW,FEW,0.00,WeatherDisplay:10.37,2013-06-03 00:48:00,
2013-06-02 19:54:00,69.2,46.3,30.02,NE,49,5.0,5.0,44,0.00,FEW,FEW,0.00,WeatherDisplay:10.37,2013-06-03 00:54:00,
2013-06-02 20:00:00,69.2,46.3,30.02,ENE,57,1.0,5.0,44,0.00,FEW,FEW,0.00,WeatherDisplay:10.37,2013-06-03 01:00:00,
2013-06-02 20:06:00,69.8,45.7,30.02,ENE,59,3.0,5.0,42,0.00,FEW,FEW,0.00,WeatherDisplay:10.37,2013-06-03 01:06:00,
2013-06-02 20:12:00,72.0,45.7,30.02,NE,34,0.0,5.0,39,0.00,FEW,FEW,0.00,WeatherDisplay:10.37,2013-06-03 01:12:00,
2013-06-02 20:18:00,72.5,46.8,30.02,NNE,21,0.0,3.0,40,0.00,FEW,FEW,0.00,WeatherDisplay:10.37,2013-06-03 01:18:00,
2013-06-02 20:24:00,72.9,46.4,30.02,NE,36,0.0,2.0,39,0.00,FEW,FEW,0.00,WeatherDisplay:10.37,2013-06-03 01:24:00,
2013-06-02 20:30:00,72.2,46.5,30.02,NE,54,1.0,4.0,40,0.00,FEW,FEW,0.00,WeatherDisplay:10.37,2013-06-03 01:30:00,
2013-06-02 20:36:00,70.4,47.4,30.02,ENE,71,0.0,0.0,44,0.00,FEW,FEW,0.00,WeatherDisplay:10.37,2013-06-03 01:36:00,
2013-06-02 20:42:00,69.0,47.3,30.02,East,92,0.0,0.0,46,0.00,FEW,FEW,0.00,WeatherDisplay:10.37,2013-06-03 01:42:00,
2013-06-02 20:48:00,68.0,47.5,30.02,ESE,118,0.0,0.0,48,0.00,FEW,FEW,0.00,WeatherDisplay:10.37,2013-06-03 01:48:00,
2013-06-02 20:54:00,66.9,47.2,30.02,East,90,0.0,0.0,49,0.00,FEW,FEW,0.00,WeatherDisplay:10.37,2013-06-03 01:54:00,
2013-06-02 21:00:00,65.7,47.0,30.02,ENE,64,0.0,0.0,51,0.00,FEW,FEW,0.00,WeatherDisplay:10.37,2013-06-03 02:00:00,
2013-06-02 21:06:00,65.2,46.6,30.02,ENE,76,0.0,0.0,51,0.00,FEW,FEW,0.00,WeatherDisplay:10.37,2013-06-03 02:06:00,
2013-06-02 21:12:00,64.3,46.8,30.02,ENE,67,0.0,0.0,53,0.00,FEW,FEW,0.00,WeatherDisplay:10.37,2013-06-03 02:12:00,
2013-06-02 21:18:00,63.6,46.7,30.02,ENE,67,0.0,0.0,54,0.00,FEW,FEW,0.00,WeatherDisplay:10.37,2013-06-03 02:18:00,
2013-06-02 21:24:00,63.0,46.6,30.02,ENE,67,0.0,0.0,55,0.00,FEW,FEW,0.00,WeatherDisplay:10.37,2013-06-03 02:24:00,
2013-06-02 21:30:00,62.5,46.5,30.02,ENE,67,0.0,0.0,56,0.00,FEW,FEW,0.00,WeatherDisplay:10.37,2013-06-03 02:30:00,
2013-06-02 21:36:00,61.8,46.4,30.02,ENE,67,0.0,0.0,57,0.00,FEW,FEW,0.00,WeatherDisplay:10.37,2013-06-03 02:36:00,
2013-06-02 21:42:00,61.4,46.4,30.02,ENE,67,0.0,0.0,58,0.00,FEW,FEW,0.00,WeatherDisplay:10.37,2013-06-03 02:42:00,
2013-06-02 21:48:00,60.8,47.2,30.02,ENE,67,0.0,0.0,61,0.00,FEW,FEW,0.00,WeatherDisplay:10.37,2013-06-03 02:48:00,
2013-06-02 21:54:00,60.2,47.1,30.02,ENE,64,0.0,0.0,62,0.00,FEW,FEW,0.00,WeatherDisplay:10.37,2013-06-03 02:54:00,
2013-06-02 22:00:00,59.8,46.7,30.02,NE,50,0.0,0.0,62,0.00,FEW,FEW,0.00,WeatherDisplay:10.37,2013-06-03 03:00:00,
2013-06-02 22:06:00,59.2,46.6,30.02,NE,45,0.0,0.0,63,0.00,FEW,FEW,0.00,WeatherDisplay:10.37,2013-06-03 03:06:00,
2013-06-02 22:12:00,58.9,46.3,30.02,NE,45,0.0,0.0,63,0.00,FEW,FEW,0.00,WeatherDisplay:10.37,2013-06-03 03:12:00,
2013-06-02 22:18:00,58.5,46.7,30.02,NE,45,0.0,0.0,65,0.00,FEW,FEW,0.00,WeatherDisplay:10.37,2013-06-03 03:18:00,
2013-06-02 22:24:00,58.0,46.7,30.02,NE,45,0.0,0.0,66,0.00,FEW,FEW,0.00,WeatherDisplay:10.37,2013-06-03 03:24:00,
2013-06-02 22:30:00,57.8,46.5,30.02,NE,45,0.0,0.0,66,0.00,FEW,FEW,0.00,WeatherDisplay:10.37,2013-06-03 03:30:00,
2013-06-02 22:36:00,57.6,46.7,30.02,NE,45,0.0,0.0,67,0.00,FEW,FEW,0.00,WeatherDisplay:10.37,2013-06-03 03:36:00,
2013-06-02 22:42:00,57.2,46.3,30.02,NE,45,0.0,0.0,67,0.00,FEW,FEW,0.00,WeatherDisplay:10.37,2013-06-03 03:42:00,
2013-06-02 22:48:00,57.1,46.2,30.02,NE,45,0.0,0.0,67,0.00,FEW,FEW,0.00,WeatherDisplay:10.37,2013-06-03 03:48:00,
2013-06-02 22:54:00,56.9,46.8,30.02,NE,45,0.0,0.0,69,0.00,FEW,FEW,0.00,WeatherDisplay:10.37,2013-06-03 03:54:00,
2013-06-02 23:00:00,56.5,46.4,30.02,NE,46,0.0,0.0,69,0.00,FEW,FEW,0.00,WeatherDisplay:10.37,2013-06-03 04:00:00,
2013-06-02 23:03:00,56.5,46.4,30.02,ENE,68,0.0,0.0,69,0.00,CLR,CLR,0.00,WeatherDisplay:10.37,2013-06-03 04:03:00,
2013-06-02 23:09:00,56.3,46.6,30.02,ESE,102,0.0,0.0,70,0.00,CLR,CLR,0.00,WeatherDisplay:10.37,2013-06-03 04:09:00,
2013-06-02 23:12:00,56.2,46.5,30.02,East,98,0.0,0.0,70,0.00,CLR,CLR,0.00,WeatherDisplay:10.37,2013-06-03 04:12:00,
2013-06-02 23:18:00,56.3,47.0,30.02,East,95,1.0,3.0,71,0.00,CLR,CLR,0.00,WeatherDisplay:10.37,2013-06-03 04:18:00,
2013-06-02 23:24:00,57.6,47.5,30.02,East,89,2.0,4.0,69,0.00,CLR,CLR,0.00,WeatherDisplay:10.37,2013-06-03 04:24:00,
2013-06-02 23:30:00,58.3,48.1,30.01,East,101,1.0,6.0,69,0.00,CLR,CLR,0.00,WeatherDisplay:10.37,2013-06-03 04:30:00,
2013-06-02 23:33:00,58.7,48.1,30.01,East,101,3.0,5.0,68,0.00,CLR,CLR,0.00,WeatherDisplay:10.37,2013-06-03 04:33:00,
2013-06-02 23:39:00,58.9,47.9,30.01,East,86,3.0,6.0,67,0.00,CLR,CLR,0.00,WeatherDisplay:10.37,2013-06-03 04:39:00,
2013-06-02 23:45:00,58.9,47.9,30.01,East,99,0.0,0.0,67,0.00,CLR,CLR,0.00,WeatherDisplay:10.37,2013-06-03 04:45:00,
2013-06-02 23:51:00,58.9,48.3,30.02,ESE,105,0.0,0.0,68,0.00,CLR,CLR,0.00,WeatherDisplay:10.37,2013-06-03 04:51:00,
2013-06-02 23:57:00,58.9,48.3,30.02,ESE,109,1.0,7.0,68,0.00,CLR,CLR,0.00,WeatherDisplay:10.37,2013-06-03 04:57:00,